Zielona Gora, Polska

09:58 CET dnia 17-styczeń-2017 (GMT +0100)
Babimost

Pogoda Historia dla EPZG - styczeń, 2017

Change the Weather History Date:

Czwartek, styczeń 12, 2017

  Actual Average (EPPO) Record (EPPO)
Temperature  
Temperatura średnia 30 ° F -  
Temperatura maksymalna 37 ° F 34 ° F 48 ° F (1998)
Temperatura minimalna 24 ° F 25 ° F 14 ° F (2003)
Degree Days  
stopnio-dni grzewczych 34    
Moisture  
Punkt rosy 33 ° F    
Average Humidity 85    
Maximum Humidity 100    
Minimum Humidity 68    
Opady  
Opady 0.01 cali 0.05 cali - ()
Ciśnienie na poziomie morza  
Ciśnienie na poziomie morza 29.63 cali    
Wiatr  
Prędkość wiatru 13 mph ()    
Maksymalna prędkość wiatru 22 mph    
Max Gust Speed -    
Widzialność 8.6 mil    
Wydarzenia deszcz , śnieg    
Averages and records for this station are not official NWS values.
T = Trace of Precipitation, MM = Missing Value Source: Averaged Metar Reports

Daily Weather History Graph

Daily Weather History Graph

Search for Another Location

Airport or City:

Trip Planner

Search our weather history database for the weather conditions in past years. The results will help you decide how hot, cold, wet, or windy it might be!

Date:

Astronomia

Jan. 12, 2017 Wschód Zachów
Aktualny czas 08:00 CET 16:09 CET
Zmierzch cywilny 07:21 CET 16:49 CET
Zmierzch żeglarski 06:38 CET 17:32 CET
świt/zmierzch astronomiczny 05:57 CET 18:13 CET
Księżyc 16:34 CET (1/12) 07:31 CET (1/12)
całkowite oświetlenie 9h 28m
Długość dnia
8h 09m
Pełnia Księżyca, 100% of the Moon is Illuminated
Styczeń 12
Pełnia Księżyca
Styczeń 12
Pełnia Księżyca
Styczeń 19
Ostatnia kwadra
Styczeń 28
Nowy
Luty 4
Pierwsza kwadra

Hourly Weather History & Observations

czas (CET) Temp. czynnik chłodzący wiatru Punkt rosy Wilgotność Ciśnienie Widzialność Wind Dir Prędkość wiatru prędkość w porywie Precip Wydarzenia Warunki pogodowe
12:00 AM 33 ° F - 33 ° F 98% 29.53 cali 5 mi ZdPdZd 11.2 mph - - śnieg lekkie przelotne opady śniegu
1:00 AM 35 ° F - 34 ° F 93% 29.54 cali 6 mi zachodni 11.2 mph - -   niewielkie zachmurzenie
2:00 AM 35 ° F - 34 ° F 93% 29.55 cali 6 mi zachodni 11.2 mph - - deszcz lekkie przelotne deszcze
3:00 AM 35 ° F - 34 ° F 95% 29.57 cali 6 mi zachodni 11.2 mph - - deszcz lekkie przelotne deszcze
4:00 AM 36 ° F - 34 ° F 89% 29.58 cali 9 mi zachodni 13.4 mph - - deszcz lekkie przelotne deszcze
5:00 AM 35 ° F - 33 ° F 91% 29.60 cali 6 mi zachodni 13.4 mph - - deszcz lekkie przelotne deszcze
5:30 AM 35.6 ° F 25.5 ° F 35.6 ° F 100% 29.56 cali 6.2 mi ZdPdZd 17.3 mph - N/A   przewaga chmur
6:00 AM 36 ° F - 33 ° F 83% 29.62 cali 9 mi zachodni 13.4 mph - - deszcz lekkie przelotne deszcze
6:00 AM 35.6 ° F 25.5 ° F 35.6 ° F 100% 29.56 cali 6.2 mi ZdPdZd 17.3 mph - N/A   pochmurno
6:30 AM 35.6 ° F 25.5 ° F 35.6 ° F 100% 29.56 cali 6.2 mi PdZd 17.3 mph - N/A   pochmurno
7:00 AM 36 ° F - 32 ° F 81% 29.63 cali 12 mi zachodni 11.2 mph - -   niewielkie zachmurzenie
7:00 AM 37.4 ° F 28.5 ° F 35.6 ° F 93% 29.59 cali 6.2 mi ZdPdZd 15.0 mph - N/A   przewaga chmur
7:30 AM 37.4 ° F 27.8 ° F 33.8 ° F 87% 29.59 cali 6.2 mi ZdPdZd 17.3 mph - N/A   pochmurno
8:00 AM 36 ° F - 32 ° F 78% 29.65 cali 12 mi zachodni 11.2 mph - -   pochmurno
8:00 AM 37.4 ° F 28.5 ° F 33.8 ° F 87% 29.62 cali 6.2 mi ZdPdZd 15.0 mph - N/A   pochmurno
8:30 AM 37.4 ° F 28.5 ° F 33.8 ° F 87% 29.62 cali 6.2 mi ZdPdZd 15.0 mph - N/A   pochmurno
9:00 AM 36 ° F - 32 ° F 78% 29.67 cali 12 mi zachodni 11.2 mph - - śnieg lekkie przelotne opady śniegu
9:00 AM 37.4 ° F 28.5 ° F 33.8 ° F 87% 29.62 cali 6.2 mi ZdPdZd 15.0 mph - N/A   przewaga chmur
9:30 AM 37.4 ° F 27.8 ° F 33.8 ° F 87% 29.62 cali 6.2 mi ZdPdZd 17.3 mph - N/A   pochmurno
10:00 AM 36 ° F - 31 ° F 76% 29.68 cali 16 mi zachodni 11.2 mph - - deszcz lekkie przelotne deszcze
10:00 AM 37.4 ° F 27.5 ° F 33.8 ° F 87% 29.65 cali 6.2 mi ZdPdZd 18.4 mph - N/A   przewaga chmur
10:30 AM 37.4 ° F 27.8 ° F 33.8 ° F 87% 29.65 cali 6.2 mi ZdPdZd 17.3 mph - N/A   przewaga chmur
11:00 AM 37 ° F - 31 ° F 71% 29.69 cali 19 mi zachodni 13.4 mph - -   przewaga chmur
11:00 AM 37.4 ° F 27.2 ° F 33.8 ° F 87% 29.65 cali 6.2 mi ZdPdZd 19.6 mph - N/A   obłoki zanikające
11:30 AM 39.2 ° F 30.2 ° F 33.8 ° F 81% 29.65 cali 6.2 mi ZdPdZd 17.3 mph - N/A   przewaga chmur
12:00 PM 37 ° F - 31 ° F 71% 29.69 cali 12 mi zachodni 13.4 mph - - deszcz lekkie przelotne deszcze
12:00 PM 39.2 ° F 29.6 ° F 33.8 ° F 81% 29.65 cali 6.2 mi ZdPdZd 19.6 mph - N/A   przewaga chmur
12:30 PM 37.4 ° F 26.6 ° F 33.8 ° F 87% 29.65 cali 6.2 mi ZdPdZd 21.9 mph - N/A   przewaga chmur
1:00 PM 36 ° F - 32 ° F 79% 29.69 cali 9 mi zachodni 13.4 mph - - śnieg silne przelotne opady śniegu
1:00 PM 37.4 ° F 27.5 ° F 33.8 ° F 87% 29.65 cali 6.2 mi PdZd 18.4 mph - N/A   obłoki zanikające
1:30 PM 37.4 ° F 26.9 ° F 33.8 ° F 87% 29.65 cali 6.2 mi PdZd 20.7 mph - N/A   obłoki zanikające
2:00 PM 36 ° F - 33 ° F 86% 29.69 cali 9 mi ZdPdZd 11.2 mph - - śnieg lekkie przelotne opady śniegu
2:00 PM 35.6 ° F 24.5 ° F 33.8 ° F 93% 29.65 cali 4.3 mi PdZd 20.7 mph - N/A śnieg lekkie przelotne opady śniegu
2:30 PM 35.6 ° F 25.5 ° F 33.8 ° F 93% 29.65 cali 6.2 mi ZdPdZd 17.3 mph - N/A   przewaga chmur
3:00 PM 37 ° F - 31 ° F 72% 29.69 cali 12 mi ZdPdZd 13.4 mph - -   przewaga chmur
3:00 PM 35.6 ° F 25.9 ° F 33.8 ° F 93% 29.65 cali 6.2 mi PdZd 16.1 mph - N/A deszcz , śnieg lekkie przelotne deszcze
3:30 PM 37.4 ° F 27.8 ° F 33.8 ° F 87% 29.65 cali 6.2 mi PdZd 17.3 mph - N/A   obłoki zanikające
4:00 PM 37 ° F - 30 ° F 68% 29.69 cali 12 mi ZdPdZd 11.2 mph - -   niewielkie zachmurzenie
4:00 PM 37.4 ° F 28.2 ° F 33.8 ° F 87% 29.65 cali 6.2 mi PdZd 16.1 mph - N/A   niewielkie zachmurzenie
4:30 PM 37.4 ° F 28.2 ° F 32.0 ° F 81% 29.65 cali - PdZd 16.1 mph - N/A   pogodnie
5:00 PM 37 ° F - 30 ° F 69% 29.69 cali 12 mi ZdPdZd 8.9 mph - -   pochmurno
5:00 PM 37.4 ° F 28.2 ° F 32.0 ° F 81% 29.65 cali - PdZd 16.1 mph - N/A   pogodnie
5:30 PM 37.4 ° F 28.9 ° F 32.0 ° F 81% 29.65 cali - PdZd 13.8 mph - N/A   pogodnie
6:00 PM 35 ° F - 31 ° F 78% 29.68 cali 12 mi ZdPdZd 11.2 mph - -   niewielkie zachmurzenie
6:30 PM 37.4 ° F 28.5 ° F 32.0 ° F 81% 29.62 cali - PdZd 15.0 mph - N/A   pogodnie
7:00 PM 35 ° F - 30 ° F 74% 29.67 cali 7 mi PdZd 6.7 mph - -   niewielkie zachmurzenie
7:00 PM 37.4 ° F 28.2 ° F 32.0 ° F 81% 29.62 cali - PdZd 16.1 mph - N/A   pogodnie
7:30 PM 35.6 ° F 26.2 ° F 32.0 ° F 87% 29.62 cali - PdZd 15.0 mph - N/A   pogodnie
8:00 PM 35 ° F - 30 ° F 74% 29.65 cali 16 mi PdZd 6.7 mph - -   pochmurno
8:00 PM 35.6 ° F 27.5 ° F 32.0 ° F 87% 29.62 cali - PdPdZd 11.5 mph - N/A   pogodnie
8:30 PM 35.6 ° F 27.5 ° F 32.0 ° F 87% 29.59 cali - PdPdZd 11.5 mph - N/A   pogodnie
9:00 PM 33 ° F - 29 ° F 77% 29.62 cali 16 mi PdPdZd 6.7 mph - -   pochmurno
9:00 PM 35.6 ° F 27.5 ° F 32.0 ° F 87% 29.59 cali - PdPdZd 11.5 mph - N/A   pogodnie
9:30 PM 35.6 ° F 29.2 ° F 30.2 ° F 81% 29.59 cali - południowy 8.1 mph - N/A   pogodnie
10:00 PM 32 ° F - 29 ° F 85% 29.60 cali 16 mi południowy 4.5 mph - -   pochmurno
10:00 PM 33.8 ° F 27.0 ° F 30.2 ° F 87% 29.56 cali - południowy 8.1 mph - N/A   pogodnie
11:00 PM 32 ° F - 29 ° F 82% 29.56 cali 12 mi południowy 4.5 mph - -   pochmurno